Location: Paris
(48.6709°N, 2.3750°E)
Time: 08:53:34
(UTC+02:00)

KKS-1 - Pass Details

Date: 03 July 2022
Orbit: 635 x 648 km, 98.2° (Epoch: 08 August)

Event Time Altitude Azimuth Distance (km) Brightness Sun altitude
Rises 01:44:44 0° 357° (N) 2,978 ? -18.3°
Reaches altitude 10° 01:48:14 10° 328° (NNW) 2,059 ? -18.3°
Maximum altitude 01:50:00 12° 305° (NW) 1,906 ? -18.3°
Drops below altitude 10° 01:51:47 10° 281° (W) 2,052 ? -18.3°
Sets 01:55:16 0° 252° (WSW) 2,953 ? -18.4°
